Location: Newark
(49.2191°N, 12.6671°E)
Time: 13:46:01
(UTC+00:00)

Transit 4A - Pass Details

Date: 31 January 2020
Orbit: 872 x 973 km, 66.8° (Epoch: 26 February)

Event Time Altitude Azimuth Distance (km) Brightness Sun altitude
Rises 08:51:57 0° 306° (NW) 3,491 10.3 15.4°
Reaches altitude 10° 08:55:54 10° 331° (NNW) 2,540 9.6 15.8°
Maximum altitude 08:58:47 14° 1° (N) 2,272 9.6 16.1°
Drops below altitude 10° 09:01:41 10° 32° (NNE) 2,531 10.0 16.3°
Sets 09:05:36 0° 57° (ENE) 3,470 10.9 16.7°
